Location: Cedar Brake
(32.2526°N, 97.8459°W)
Time: 20:00:46
(UTC+00:00)

IRAS Rocket - Pass Details

Date: 22 April 2026
Orbit: 845 x 875 km, 100.1° (Epoch: 21 May)

Event Time Altitude Azimuth Distance (km) Brightness Sun altitude
Exits shadow 02:30:02 18° 161° (SSE) 1,981 5.7 -17.5°
Maximum altitude 02:34:15 84° 74° (ENE) 857 4.1 -18.3°
Drops below altitude 10° 02:39:44 10° 347° (NNW) 2,473 7.2 -19.3°
Sets 02:42:06 0° 347° (NNW) 3,410 8.0 -19.8°
